Tracking 29019 objects as of 13-Jun-2024
HD Live streaming from Space Station
objects crossing your sky now

STARLINK-1802

Track STARLINK-1802 now!
10-day predictions
STARLINK-1802 is classified as:


NORAD ID: 46702
Int'l Code: 2020-073AJ
Perigee: 554.0 km
Apogee: 554.8 km
Inclination: 53.1 °
Period: 95.6 minutes
Semi major axis: 6925 km
RCS: Unknown
Launch date: October 18, 2020
Source: United States (US)
Launch site: AIR FORCE EASTERN TEST RANGE (AFETR)
Your satellite tracking list
Your tracking list is empty




NASA's NSSDC Master Catalog

Two Line Element Set (TLE):
1 46702U 20073AJ  24165.09908934 -.00000135  00000-0  97845-5 0  9999
2 46702  53.0539 190.4029 0000591  87.0338 273.0719 15.06390214202256
Source of the keplerian elements: AFSPC